Change the Weather History Date:

Friday, June 14, 2013

  Actual Average Record
Temperature  
Mean Temperature 88 °F 82 °F  
Max Temperature 95 °F 91 °F 106 °F (1998)
Min Temperature 80 °F 74 °F 59 °F (1903)
Degree Days  
Heating Degree Days 0 0  
Month to date heating degree days 0 0  
Since 1 June heating degree days 0 0  
Since 1 July heating degree days 529 898  
Cooling Degree Days 23 17  
Month to date cooling degree days 284 233  
Year to date cooling degree days 1302 1074  
Since 1 June cooling degree days 284 233  
Growing Degree Days 38 (Base 50)    
Moisture  
Dew Point 76 °F    
Average Humidity 71    
Maximum Humidity 85    
Minimum Humidity 56    
Precipitation  
Precipitation T in 0.11 in 1.37 in (1974)
Month to date precipitation 1.00 1.50  
Year to date precipitation 5.73 11.77  
Snow  
Snow 0.00 in - - ()
Month to date snowfall 0.0  
Since 1 June snowfall 0.0  
Since 1 July snowfall 0.0  
Snow Depth 0.00 in    
Sea Level Pressure  
Sea Level Pressure 29.92 in    
Wind  
Wind Speed 13 mph (SE)    
Max Wind Speed 22 mph    
Max Gust Speed 26 mph    
Visibility 10 miles    
Events Rain    
T = Trace of Precipitation, MM = Missing Value Source: NWS Daily Summary

Daily Weather History Graph

Daily Weather History Graph

Search for Another Location

Airport or City:

Trip Planner

Search our weather history database for the weather conditions in past years. The results will help you decide how hot, cold, wet, or windy it might be!

Date:

Astronomy

Jun. 14, 2013 Rise Set
Actual Time 6:33 AM CDT 8:27 PM CDT
Civil Twilight 6:07 AM CDT 8:53 PM CDT
Nautical Twilight 5:34 AM CDT 9:25 PM CDT
Astronomical Twilight 5:00 AM CDT 10:00 PM CDT
Moon 11:45 AM CDT (6/14) No Moon Set
Length of Visible Light 14h 46m
Length of Day
13h 53m
Waxing Crescent, 30% of the Moon is Illuminated
Jun 14
Waxing Crescent
Jun 16
First Quarter
Jun 23
Full
Jun 29
Last Quarter
Jul 8
New

Hourly Weather History & Observations

Time (CDT) Temp. Heat Index Dew Point Humidity Pressure Visibility Wind Dir Wind Speed Gust Speed Precip Events Conditions
12:51 AM 82.0 °F 89.4 °F 75.9 °F 82% 29.93 in 10.0 mi SE 9.2 mph - N/A   Partly Cloudy
1:51 AM 82.0 °F 89.4 °F 75.9 °F 82% 29.92 in 10.0 mi SSE 8.1 mph - N/A   Partly Cloudy
2:51 AM 82.0 °F 89.4 °F 75.9 °F 82% 29.91 in 10.0 mi SSE 8.1 mph - N/A   Partly Cloudy
3:51 AM 82.0 °F 89.4 °F 75.9 °F 82% 29.90 in 10.0 mi SE 5.8 mph - N/A   Partly Cloudy
4:51 AM 82.0 °F 89.4 °F 75.9 °F 82% 29.91 in 10.0 mi SE 6.9 mph - N/A   Scattered Clouds
5:51 AM 81.0 °F 87.3 °F 75.9 °F 85% 29.92 in 10.0 mi SE 8.1 mph - N/A   Partly Cloudy
6:51 AM 82.0 °F 89.4 °F 75.9 °F 82% 29.94 in 10.0 mi SE 9.2 mph - N/A   Partly Cloudy
7:51 AM 82.9 °F 91.8 °F 77.0 °F 82% 29.94 in 10.0 mi SE 9.2 mph - N/A   Scattered Clouds
8:51 AM 84.9 °F 95.3 °F 77.0 °F 77% 29.96 in 10.0 mi SE 12.7 mph - 0.00 in Rain Light Rain
9:51 AM 89.1 °F 103.2 °F 78.1 °F 70% 29.97 in 10.0 mi SE 16.1 mph - 0.00 in   Scattered Clouds
10:51 AM 88.0 °F 98.5 °F 75.9 °F 67% 29.96 in 10.0 mi ESE 15.0 mph - N/A   Scattered Clouds
11:51 AM 89.1 °F 100.2 °F 75.9 °F 65% 29.95 in 10.0 mi SSE 17.3 mph - N/A   Scattered Clouds
12:51 PM 93.0 °F 104.6 °F 75.0 °F 56% 29.92 in 10.0 mi South 15.0 mph - N/A   Scattered Clouds
1:51 PM 91.9 °F 103.2 °F 75.0 °F 58% 29.91 in 10.0 mi SE 15.0 mph - N/A   Scattered Clouds
2:51 PM 93.0 °F 105.3 °F 75.9 °F 57% 29.89 in 10.0 mi SE 17.3 mph 24.2 mph N/A   Scattered Clouds
3:51 PM 93.0 °F 104.6 °F 75.0 °F 56% 29.88 in 10.0 mi SE 18.4 mph - N/A   Scattered Clouds
4:51 PM 90.0 °F 100.2 °F 75.0 °F 61% 29.88 in 10.0 mi ESE 17.3 mph - N/A   Partly Cloudy
5:51 PM 88.0 °F 97.5 °F 75.0 °F 65% 29.88 in 10.0 mi SE 16.1 mph - N/A   Partly Cloudy
6:51 PM 87.1 °F 97.3 °F 75.9 °F 69% 29.87 in 10.0 mi SE 19.6 mph - N/A   Mostly Cloudy
7:51 PM 86.0 °F 96.0 °F 75.9 °F 72% 29.88 in 10.0 mi ESE 17.3 mph - N/A   Scattered Clouds
8:51 PM 84.9 °F 94.1 °F 75.9 °F 74% 29.89 in 10.0 mi SE 12.7 mph - N/A   Scattered Clouds
9:51 PM 84.0 °F 93.7 °F 77.0 °F 79% 29.91 in 10.0 mi SSE 9.2 mph - N/A   Partly Cloudy
10:51 PM 84.0 °F 93.7 °F 77.0 °F 79% 29.93 in 10.0 mi SSE 9.2 mph - N/A   Partly Cloudy
11:51 PM 82.9 °F 91.8 °F 77.0 °F 82% 29.93 in 10.0 mi SE 8.1 mph - N/A   Partly Cloudy